Find Jilin-1 GaoFen 07B 01 xing

NORAD ID: 66993 Int'l Des: NNA 2025-292 Owner: CGSTL Country: CN Constellation: jilin-1 operational
LEOCIRCULARRETROGRADESSO

現在のビュー

3D地球を読み込み中...

About Jilin-1 GaoFen 07B 01 xing

Jilin-1 GaoFen 07B 01 xing (NORAD 66993) is a jilin-1 constellation satellite launched Dec 10, 2025 by CGSTL of CN. It operates in LEO, CIRCULAR, RETROGRADE, SSO orbit with a mass of 50.00 kg.

Jilin-1 GaoFen 07B 01 xingについて

説明を読み込み中...

次回通過

Passes for default location (London). Set your location on the main map for personalized predictions.

高度履歴

Loading altitude history...

軌道要素

1 66993U 25292A 26194.74876727 .00002260 00000-0 15700-3 0 9999
2 66993 97.6314 270.1976 0013426 267.3244 92.6446 15.06492157 32445
Epoch: Jul 13, 2026 • Age: 10 hours

現在のステータス

高度 549.8 km
遠地点 / 近地点 N/A
速度 7.59 km/s
衛星直下点 -12.60°S, 91.04°E
打ち上げ日 Dec 10, 2025
運用期間 0.5 years
タイプ other

技術仕様

分類 Payload
質量 50.00 kg
乾燥質量 50.00 kg
総質量 50.00 kg
長さ 1.50 m
直径 1.00 m
スパン 1.50 m
形状 Box
製造者 CGSTL
バスタイプ JL-1GF07
フェーズステータス In Orbit
所有者/国 CGSTL/CN

Most Searched